User: anonymous   Login
Location: Asheville, NC
(35.6000°N, 82.5500°W)
Time: 19:58:58
(UTC-05:00)
Language:

UWE-3 - Orbit

View from above orbital plane
View from above orbital plane
View from above satellite
View from above satellite

Ground track
Ground track

The orbit data is extracted from the following two-line orbital elements,

1 39446U 13066AG  19016.99125492  .00000144  00000-0  25881-4 0  9997
2 39446  97.5837  31.2808 0069671 197.2147 162.6702 14.78314583276709
Epoch (UTC): 16 January 2019 23:47:24
Eccentricity: 0.0069671
inclination: 97.5837°
perigee height: 586 km
apogee height: 683 km
right ascension of ascending node: 31.2808°
argument of perigee: 197.2147°
revolutions per day: 14.78314583
mean anomaly at epoch: 162.6702°
orbit number at epoch: 27670

The dashed part of the orbit path shows where the satellite is in the earth's shadow,  

DLR